sat.trackr.live / text

‹ back to catalog

STARLINK-32764

NORAD 62570 · 2025-006S

PAYLOAD ACTIVE UNKNOWN

§ Identity

Operator
Country
US
Launch date
2025-01-10
Launch site
AFETR
Launch vehicle
Mass (kg)
RCS (m²)

Purposes: comms

External: N2YO · Heavens-Above · Gunter

§ Orbital elements

Epoch: 2026-05-25T05:26:19.622400Z

Period
94.27 min
Inclination
42.9983°
Eccentricity
0.0001281
Mean motion
15.27589088 rev/d
Perigee alt
482.1 km
Apogee alt
483.9 km
Semi-major
6,861.2 km
B*
3.4860e-4
RAAN
220.7039°
Arg perigee
276.6711°
Mean anomaly
83.3995°
Rev number
7,656

§ Raw data

STARLINK-327641 62570U 25006S   26145.22661600  .00009346  00000+0  34860-3 0  99992 62570  42.9983 220.7039 0001281 276.6711  83.3995 15.27589088 76566

JSON: /api/v1/satellites/62570 · /tle

For live sub-satellite position, see the globe view (requires WebGL).

§ Visibility from observer

Set your observer location to see the next 7 days of passes ≥ 10°. The values pass through the URL so the page stays shareable.

No JS? Fill the form by hand. The geolocation button needs JavaScript.